This demonstration page uses our WeatherBlox Daily Observations layout. Learn more.

Left ArrowRight Arrow

Hourly Observations for July 26, 2017

Temp ( °F °C ) Dew Point ( °F °C ) Humidity (%) Winds ( mph kmh ) Pressure ( in mb ) Visibility ( mi km ) Precip ( " mm )
12:53 am 00:53 Clear 78 25.6 53 11.7 42 42 Calm 29.91 1013 10 16 0.00 0.00
1:53 am 01:53 Clear 75 23.9 53 11.7 46 46 Calm 29.91 1013 10 16 0.00 0.00
2:53 am 02:53 Clear 73 22.8 54 12.2 51 51 Calm 29.92 1013 10 16 0.00 0.00
3:53 am 03:53 Clear 71 21.7 54 12.2 55 55 Calm 29.93 1014 10 16 0.00 0.00
4:53 am 04:53 Clear 70 21.1 54 12.2 57 57 W 3 6 29.94 1014 10 16 0.00 0.00
5:53 am 05:53 Clear 67 19.4 54 12.2 63 63 Calm 29.95 1014 10 16 0.00 0.00
6:53 am 06:53 Sunny 68 20 54 12.2 61 61 Calm 29.96 1015 10 16 0.00 0.00
7:53 am 07:53 Sunny 74 23.3 54 12.2 50 50 Calm 29.97 1015 10 16 0.00 0.00
8:53 am 08:53 Sunny 79 26.1 54 12.2 42 42 Calm 29.97 1015 10 16 0.00 0.00
9:53 am 09:53 Sunny 84 28.9 54 12.2 36 36 S 5 7 29.97 1015 10 16 0.00 0.00
10:53 am 10:53 Sunny 87 30.6 51 10.6 29 29 VRB 3 6 29.96 1015 10 16 0.00 0.00
11:53 am 11:53 Sunny 92 33.3 47 8.3 21 21 Calm 29.95 1014 10 16 0.00 0.00
12:53 pm 12:53 Sunny 95 35 47 8.3 19 19 NE 7 11 29.93 1014 10 16 0.00 0.00
1:53 pm 13:53 Sunny 96 35.6 47 8.3 19 19 undefined N/A 29.91 1013 10 16 0.00 0.00
2:53 pm 14:53 Sunny 99 37.2 44 6.7 15 15 SSE 10 17 29.89 1012 10 16 0.00 0.00
3:53 pm 15:53 Sunny 99 37.2 40 4.4 13 13 SE 6 9 29.87 1012 10 16 0.00 0.00
4:53 pm 16:53 Sunny 99 37.2 40 4.4 13 13 S 13 20 29.86 1011 10 16 0.00 0.00
5:53 pm 17:53 Sunny 99 37.2 40 4.4 13 13 SSE 16 26 29.84 1010 10 16 0.00 0.00
6:53 pm 18:53 Sunny 97 36.1 44 6.7 16 16 SSE 14 22 29.84 1011 10 16 0.00 0.00
7:53 pm 19:53 Sunny 93 33.9 48 8.9 21 21 SSE 8 13 29.85 1011 10 16 0.00 0.00
8:53 pm 20:53 Clear 87 30.6 48 8.9 26 26 S 6 9 29.87 1011 10 16 0.00 0.00
9:53 pm 21:53 Clear 83 28.3 50 10 32 32 W 5 7 29.88 1012 10 16 0.00 0.00
10:53 pm 22:53 Clear 81 27.2 51 10.6 35 35 NNE 5 7 29.90 1013 10 16 0.00 0.00
11:53 pm 23:53 Clear 80 26.7 50 10 35 35 NNE 3 6 29.91 1013 10 16 0.00 0.00

Powered by AerisWeather